Location: South Range
(44.4886°N, 65.7879°W)
Time: 23:14:48
(UTC-03:00)

Iridium 56 - Visible Passes

Search period start: 30 August 2014 00:00
Search period end: 09 September 2014 00:00
Orbit: 776 x 779 km, 86.4° (Epoch: 30 August)

Date Brightness Start Highest point End Pass type
(mag) Time Alt. Az. Time Alt. Az. Time Alt. Az.
30 Aug 7.8 05:55:11 10° SE 05:59:38 30° E 06:04:07 10° NNE visible
31 Aug 8.5 05:23:09 10° ESE 05:26:25 17° ENE 05:29:42 10° NE visible
02 Sep 7.0 05:54:47 10° SSE 05:59:38 42° E 06:04:31 10° NNE visible
03 Sep 8.0 05:22:16 10° SE 05:26:21 24° E 05:30:26 10° NNE visible
04 Sep 8.6 04:50:43 10° ESE 04:53:10 14° ENE 04:55:38 10° NE visible
05 Sep 6.2 05:54:34 10° SSE 05:59:40 60° E 06:04:48 10° N visible
06 Sep 7.3 05:21:42 10° SSE 05:26:18 33° E 05:30:56 10° NNE visible
07 Sep 8.2 04:49:28 10° ESE 04:53:04 19° ENE 04:56:40 10° NE visible
08 Sep 8.7 04:19:01 10° E 04:19:57 10° ENE 04:20:53 10° ENE visible
08 Sep 5.6 05:54:33 10° S 05:59:45 85° E 06:05:00 10° N visible
